Location: Newark
(61.5000°N, 23.7667°E)
Time: 12:35:41
(UTC+00:00)

STRAND 1 - Visible Passes

Search period start: 18 November 2019 00:00
Search period end: 28 November 2019 00:00
Orbit: 768 x 781 km, 98.5° (Epoch: 17 November)

Date Brightness Start Highest point End Pass type
(mag) Time Alt. Az. Time Alt. Az. Time Alt. Az.
18 Nov ? 01:42:45 10° ENE 01:45:30 15° NNE 01:48:17 10° N visible
18 Nov ? 03:18:48 10° ESE 03:23:30 37° NE 03:28:13 10° N visible
18 Nov ? 04:57:24 10° S 05:02:32 64° WSW 05:07:41 10° NNW visible
19 Nov ? 01:10:25 10° NE 01:12:06 12° NNE 01:13:47 10° N visible
19 Nov ? 02:45:37 10° E 02:49:49 26° NE 02:54:01 10° N visible
19 Nov ? 04:23:17 10° SSE 04:28:28 83° ENE 04:33:39 10° NNW visible
20 Nov ? 02:12:42 10° E 02:16:13 19° NE 02:19:46 10° N visible
20 Nov ? 03:49:31 10° SE 03:54:31 53° ENE 03:59:33 10° NNW visible
20 Nov ? 05:29:02 10° SSW 05:33:54 41° W 05:38:48 10° NNW visible
21 Nov ? 01:40:03 10° ENE 01:42:44 14° NNE 01:45:26 10° N visible
21 Nov ? 03:16:03 10° ESE 03:20:43 36° NE 03:25:23 10° N visible
21 Nov ? 04:54:34 10° S 04:59:43 66° WSW 05:04:52 10° NNW visible
22 Nov ? 01:07:47 10° NE 01:09:20 11° NNE 01:10:54 10° N visible
22 Nov ? 02:42:52 10° E 02:47:01 25° NE 02:51:10 10° N visible
22 Nov ? 04:20:29 10° SSE 04:25:39 80° ENE 04:30:50 10° NNW visible
23 Nov ? 02:09:59 10° E 02:13:27 19° NE 02:16:54 10° N visible
23 Nov ? 03:46:44 10° SE 03:51:43 52° ENE 03:56:43 10° NNW visible
23 Nov ? 05:26:11 10° S 05:31:04 43° W 05:35:59 10° NNW visible
24 Nov ? 01:37:22 10° ENE 01:39:58 14° NNE 01:42:33 10° N visible
24 Nov ? 03:13:18 10° ESE 03:17:55 35° NE 03:22:33 10° N visible
24 Nov ? 04:51:44 10° S 04:56:53 69° WSW 05:02:03 10° NNW visible
25 Nov ? 01:05:09 10° NE 01:06:34 11° NNE 01:08:00 10° N visible
25 Nov ? 02:40:09 10° E 02:44:14 25° NE 02:48:20 10° N visible
25 Nov ? 04:17:41 10° SSE 04:22:50 77° ENE 04:28:00 10° NNW visible
25 Nov ? 05:58:09 10° SSW 06:02:33 28° W 06:06:59 10° NNW visible
26 Nov ? 02:07:16 10° E 02:10:40 18° NE 02:14:03 10° N visible
26 Nov ? 03:43:57 10° SE 03:48:55 50° ENE 03:53:53 10° NNW visible
26 Nov ? 05:23:19 10° S 05:28:14 44° W 05:33:11 10° NNW visible
27 Nov ? 01:34:41 10° ENE 01:37:12 14° NNE 01:39:41 10° N visible
27 Nov ? 03:10:32 10° ESE 03:15:07 34° NE 03:19:42 10° N visible
27 Nov ? 04:48:54 10° S 04:54:04 71° WSW 04:59:13 10° NNW visible
